| time (UTC) | temp F | wind direction | speed knots | gust knots | rain 1hr in | rain 24hr in | rain mn in | humidity % | barometer mb |
| 20260506033406 | 57 | 321 | 0.0 | 0.0 | 0.00 | 0.00 | 0.00 | 74 | 1007.3 |
| 20260506032859 | 57 | 321 | 0.0 | 1.7 | 0.00 | 0.00 | 0.00 | 74 | 1007.3 |
| 20260506032626 | 58 | 321 | 0.0 | 1.7 | 0.00 | 0.00 | 0.00 | 74 | 1007.2 |
| 20260506031847 | 58 | 322 | 0.0 | 0.0 | 0.00 | 0.00 | 0.00 | 74 | 1007.2 |
| 20260506031336 | 58 | 322 | 0.0 | 0.0 | 0.00 | 0.00 | 0.00 | 74 | 1007.2 |
| 20260506030837 | 58 | 322 | 0.0 | 0.0 | 0.00 | 0.00 | 0.00 | 74 | 1007.2 |
| 20260506030329 | 58 | 323 | 0.0 | 0.0 | 0.00 | 0.00 | 0.00 | 74 | 1007.2 |
| 20260506025823 | 58 | 321 | 0.0 | 0.0 | 0.00 | 0.00 | 0.00 | 73 | 1007.2 |
| 20260506025318 | 59 | 321 | 0.0 | 0.0 | 0.00 | 0.00 | 0.00 | 73 | 1007.1 |
| 20260506024807 | 59 | 321 | 0.0 | 0.0 | 0.00 | 0.00 | 0.00 | 73 | 1007.2 |
| 20260506024306 | 60 | 321 | 0.0 | 0.0 | 0.00 | 0.00 | 0.00 | 71 | 1007.2 |
| 20260506023755 | 60 | 321 | 0.0 | 0.0 | 0.00 | 0.00 | 0.00 | 71 | 1007.3 |
| 20260506023525 | 60 | 321 | 0.0 | 0.0 | 0.00 | 0.00 | 0.00 | 70 | 1007.4 |
| 20260506022745 | 60 | 321 | 0.0 | 0.0 | 0.00 | 0.00 | 0.00 | 70 | 1007.5 |
| 20260506022237 | 60 | 321 | 0.0 | 0.0 | 0.00 | 0.00 | 0.00 | 70 | 1007.4 |
| 20260506021731 | 61 | 321 | 0.0 | 0.0 | 0.00 | 0.00 | 0.00 | 70 | 1007.4 |
| 20260506021221 | 61 | 321 | 0.0 | 0.0 | 0.00 | 0.00 | 0.00 | 69 | 1007.5 |
| 20260506020715 | 61 | 321 | 0.0 | 0.0 | 0.00 | 0.00 | 0.00 | 69 | 1007.5 |
| 20260506020213 | 62 | 321 | 0.0 | 0.0 | 0.00 | 0.00 | 0.00 | 68 | 1007.5 |
| 20260506015707 | 62 | 321 | 0.0 | 0.0 | 0.00 | 0.00 | 0.00 | 67 | 1007.5 |
| 20260506015201 | 62 | 321 | 0.0 | 0.0 | 0.00 | 0.00 | 0.00 | 67 | 1007.5 |
| 20260506014650 | 62 | 321 | 0.0 | 0.0 | 0.00 | 0.00 | 0.00 | 68 | 1007.4 |
| 20260506014149 | 62 | 321 | 0.0 | 0.0 | 0.00 | 0.00 | 0.00 | 67 | 1007.4 |
| 20260506013643 | 62 | 321 | 0.0 | 0.0 | 0.00 | 0.00 | 0.00 | 67 | 1007.5 |
| 20260506013404 | 63 | 321 | 0.0 | 0.0 | 0.00 | 0.00 | 0.00 | 66 | 1007.5 |
| 20260506012631 | 63 | 321 | 0.0 | 0.0 | 0.00 | 0.00 | 0.00 | 66 | 1007.4 |
| 20260506012126 | 63 | 321 | 0.0 | 0.0 | 0.00 | 0.00 | 0.00 | 64 | 1007.5 |
| 20260506011620 | 63 | 321 | 0.0 | 0.0 | 0.00 | 0.00 | 0.00 | 64 | 1007.4 |
| 20260506011113 | 63 | 321 | 0.0 | 1.7 | 0.00 | 0.00 | 0.00 | 63 | 1007.3 |
| 20260506010602 | 63 | 321 | 0.0 | 1.7 | 0.00 | 0.00 | 0.00 | 63 | 1007.3 |
| 20260506010101 | 63 | 321 | 0.0 | 3.5 | 0.00 | 0.00 | 0.00 | 62 | 1007.3 |
| 20260506005551 | 63 | 321 | 0.0 | 3.5 | 0.00 | 0.00 | 0.00 | 63 | 1007.2 |
| 20260506005321 | 63 | 322 | 0.0 | 0.0 | 0.00 | 0.00 | 0.00 | 64 | 1007.0 |
| 20260506004549 | 63 | 323 | 0.0 | 0.9 | 0.00 | 0.00 | 0.00 | 64 | 1007.0 |
| 20260506004051 | 64 | 323 | 0.0 | 2.6 | 0.00 | 0.00 | 0.00 | 62 | 1007.0 |
| 20260506004047 | 64 | 323 | 0.0 | 0.9 | 0.00 | 0.00 | 0.00 | 64 | 1007.1 |
| 20260506003313 | 64 | 323 | 0.9 | 3.5 | 0.00 | 0.00 | 0.00 | 61 | 1007.0 |
| 20260506002815 | 64 | 336 | 0.0 | 3.5 | 0.00 | 0.00 | 0.00 | 61 | 1006.9 |
| 20260506002701 | 64 | 338 | 0.0 | 3.5 | 0.00 | 0.00 | 0.00 | 63 | 1006.8 |
| 20260506001542 | 64 | 338 | 0.0 | 3.5 | 0.00 | 0.00 | 0.00 | 61 | 1006.7 |
| 20260506001043 | 64 | 338 | 0.0 | 1.7 | 0.00 | 0.00 | 0.00 | 60 | 1006.6 |
| 20260506000541 | 65 | 338 | 0.0 | 0.0 | 0.00 | 0.00 | 0.00 | 60 | 1006.3 |
| 20260506000039 | 65 | 338 | 0.0 | 0.0 | 0.00 | 0.00 | 0.00 | 60 | 1006.0 |
| 20260505235539 | 65 | 338 | 0.0 | 0.9 | 0.00 | 0.00 | 0.00 | 59 | 1006.0 |
| 20260505235038 | 65 | 338 | 0.0 | 1.7 | 0.00 | 0.00 | 0.00 | 59 | 1006.0 |
| 20260505234535 | 65 | 338 | 0.0 | 1.7 | 0.00 | 0.00 | 0.00 | 60 | 1005.9 |
| 20260505234033 | 65 | 339 | 0.0 | 0.0 | 0.00 | 0.00 | 0.00 | 59 | 1005.5 |
| 20260505233533 | 65 | 339 | 0.0 | 1.7 | 0.00 | 0.00 | 0.00 | 58 | 1005.3 |
| 20260505233029 | 66 | 339 | 0.0 | 5.2 | 0.00 | 0.00 | 0.00 | 60 | 1005.4 |
| 20260505232803 | 66 | 339 | 0.0 | 5.2 | 0.00 | 0.00 | 0.00 | 59 | 1005.4 |
| 20260505232029 | 66 | 339 | 0.9 | 5.2 | 0.00 | 0.00 | 0.00 | 58 | 1005.4 |
| 20260505231532 | 66 | 340 | 1.7 | 5.2 | 0.00 | 0.00 | 0.00 | 58 | 1005.5 |
| 20260505231526 | 66 | 319 | 1.7 | 5.2 | 0.00 | 0.00 | 0.00 | 57 | 1005.7 |
| 20260505230519 | 66 | 305 | 0.9 | 7.0 | 0.00 | 0.00 | 0.00 | 56 | 1005.5 |
| 20260505230011 | 66 | 344 | 3.5 | 14.8 | 0.00 | 0.00 | 0.00 | 55 | 1005.7 |
| 20260505225505 | 66 | 355 | 5.2 | 14.8 | 0.00 | 0.00 | 0.00 | 55 | 1005.9 |
| 20260505225003 | 66 | 328 | 5.2 | 14.8 | 0.00 | 0.00 | 0.00 | 55 | 1006.1 |
| 20260505224734 | 66 | 257 | 4.3 | 14.8 | 0.00 | 0.00 | 0.00 | 54 | 1004.2 |
| 20260505224001 | 66 | 355 | 4.3 | 11.3 | 0.00 | 0.00 | 0.00 | 54 | 1003.9 |
| 20260505223502 | 66 | 288 | 4.3 | 13.0 | 0.00 | 0.00 | 0.00 | 54 | 1003.6 |
| 20260505223001 | 67 | 232 | 5.2 | 13.0 | 0.00 | 0.00 | 0.00 | 53 | 1003.6 |
| 20260505222735 | 67 | 341 | 5.2 | 13.0 | 0.00 | 0.00 | 0.00 | 53 | 1003.6 |
| 20260505222003 | 67 | 273 | 5.2 | 17.4 | 0.00 | 0.00 | 0.00 | 53 | 1003.6 |
| 20260505221502 | 68 | 221 | 5.2 | 17.4 | 0.00 | 0.00 | 0.00 | 52 | 1003.5 |
| 20260505221233 | 68 | 273 | 4.3 | 17.4 | 0.00 | 0.00 | 0.00 | 52 | 1003.5 |
| 20260505220503 | 69 | 267 | 4.3 | 17.4 | 0.00 | 0.00 | 0.00 | 52 | 1003.5 |
| 20260505215956 | 69 | 240 | 4.3 | 14.8 | 0.00 | 0.00 | 0.00 | 50 | 1003.4 |
| 20260505215446 | 69 | 161 | 5.2 | 15.6 | 0.00 | 0.00 | 0.00 | 50 | 1003.3 |
| 20260505214945 | 70 | 228 | 5.2 | 16.5 | 0.00 | 0.00 | 0.00 | 49 | 1003.3 |
| 20260505214445 | 70 | 323 | 5.2 | 16.5 | 0.00 | 0.00 | 0.00 | 49 | 1003.4 |
| 20260505213948 | 70 | 244 | 5.2 | 19.1 | 0.00 | 0.00 | 0.00 | 49 | 1003.3 |
| 20260505213446 | 71 | 267 | 6.1 | 19.1 | 0.00 | 0.00 | 0.00 | 48 | 1003.2 |
| 20260505212945 | 71 | 240 | 6.1 | 20.0 | 0.00 | 0.00 | 0.00 | 47 | 1003.2 |
| 20260505212446 | 71 | 245 | 5.2 | 21.7 | 0.00 | 0.00 | 0.00 | 47 | 1003.4 |
| 20260505211947 | 71 | 246 | 5.2 | 21.7 | 0.00 | 0.00 | 0.00 | 47 | 1003.0 |
| 20260505211448 | 71 | 223 | 5.2 | 16.5 | 0.00 | 0.00 | 0.00 | 48 | 1002.9 |
| 20260505210947 | 71 | 246 | 6.1 | 16.5 | 0.00 | 0.00 | 0.00 | 50 | 1002.9 |
| 20260505210446 | 70 | 217 | 7.0 | 16.5 | 0.00 | 0.00 | 0.00 | 48 | 1003.0 |
| 20260505210217 | 70 | 253 | 8.7 | 21.7 | 0.00 | 0.00 | 0.00 | 47 | 1003.0 |
| 20260505205447 | 71 | 211 | 7.0 | 21.7 | 0.00 | 0.00 | 0.00 | 47 | 1003.1 |
| 20260505204943 | 72 | 263 | 4.3 | 17.4 | 0.00 | 0.00 | 0.00 | 48 | 1003.1 |
| 20260505204445 | 72 | 306 | 5.2 | 17.4 | 0.00 | 0.00 | 0.00 | 47 | 1002.9 |
| 20260505203943 | 72 | 246 | 6.1 | 17.4 | 0.00 | 0.00 | 0.00 | 47 | 1003.1 |
| 20260505203714 | 73 | 198 | 6.1 | 20.0 | 0.00 | 0.00 | 0.00 | 46 | 1003.0 |
| 20260505202945 | 73 | 279 | 6.1 | 20.0 | 0.00 | 0.00 | 0.00 | 47 | 1003.1 |
| 20260505202442 | 73 | 257 | 4.3 | 20.0 | 0.00 | 0.00 | 0.00 | 47 | 1003.1 |
| 20260505201934 | 73 | 250 | 4.3 | 15.6 | 0.00 | 0.00 | 0.00 | 47 | 1003.2 |
| 20260505201424 | 73 | 226 | 7.0 | 15.6 | 0.00 | 0.00 | 0.00 | 46 | 1003.1 |
| 20260505200923 | 74 | 290 | 7.8 | 23.5 | 0.00 | 0.00 | 0.00 | 45 | 1003.2 |
| 20260505200913 | 74 | 226 | 6.1 | 23.5 | 0.00 | 0.00 | 0.00 | 45 | 1003.2 |
| 20260505200143 | 74 | 222 | 5.2 | 20.9 | 0.00 | 0.00 | 0.00 | 46 | 1003.2 |
| 20260505195403 | 74 | 162 | 6.1 | 20.9 | 0.00 | 0.00 | 0.00 | 45 | 1003.3 |
| 20260505194902 | 74 | 255 | 5.2 | 14.8 | 0.00 | 0.00 | 0.00 | 47 | 1003.3 |
| 20260505194634 | 74 | 107 | 5.2 | 15.6 | 0.00 | 0.00 | 0.00 | 47 | 1003.4 |
| 20260505193901 | 74 | 196 | 5.2 | 16.5 | 0.00 | 0.00 | 0.00 | 46 | 1003.5 |
| 20260505193401 | 74 | 69 | 5.2 | 16.5 | 0.00 | 0.00 | 0.00 | 47 | 1003.5 |
| 20260505192901 | 74 | 261 | 4.3 | 16.5 | 0.00 | 0.00 | 0.00 | 45 | 1003.6 |
| 20260505192359 | 74 | 257 | 5.2 | 16.5 | 0.00 | 0.00 | 0.00 | 45 | 1003.6 |
| 20260505191858 | 74 | 349 | 5.2 | 13.9 | 0.00 | 0.00 | 0.00 | 49 | 1003.8 |
| 20260505191358 | 74 | 19 | 5.2 | 14.8 | 0.00 | 0.00 | 0.00 | 46 | 1003.8 |
| 20260505190857 | 74 | 128 | 4.3 | 14.8 | 0.00 | 0.00 | 0.00 | 49 | 1003.9 |
| 20260505190357 | 75 | 218 | 4.3 | 14.8 | 0.00 | 0.00 | 0.00 | 44 | 1004.1 |
| 20260505185858 | 75 | 288 | 3.5 | 14.8 | 0.00 | 0.00 | 0.00 | 45 | 1004.3 |
| 20260505185628 | 76 | 239 | 2.6 | 8.7 | 0.00 | 0.00 | 0.00 | 44 | 1004.2 |
| 20260505184858 | 76 | 272 | 2.6 | 12.2 | 0.00 | 0.00 | 0.00 | 44 | 1004.2 |
| 20260505184404 | 75 | 201 | 3.5 | 12.2 | 0.00 | 0.00 | 0.00 | 45 | 1004.3 |
| 20260505184359 | 75 | 92 | 2.6 | 12.2 | 0.00 | 0.00 | 0.00 | 45 | 1004.3 |
| 20260505183358 | 75 | 236 | 4.3 | 23.5 | 0.00 | 0.00 | 0.00 | 46 | 1004.4 |
| 20260505182851 | 75 | 281 | 6.1 | 23.5 | 0.00 | 0.00 | 0.00 | 44 | 1004.5 |
| 20260505182350 | 75 | 267 | 7.0 | 23.5 | 0.00 | 0.00 | 0.00 | 44 | 1004.6 |
| 20260505181845 | 75 | 206 | 6.1 | 23.5 | 0.00 | 0.00 | 0.00 | 42 | 1004.5 |
| 20260505181339 | 76 | 178 | 6.1 | 16.5 | 0.00 | 0.00 | 0.00 | 43 | 1004.5 |
| 20260505180827 | 76 | 153 | 6.1 | 16.5 | 0.00 | 0.00 | 0.00 | 44 | 1004.4 |
| 20260505180322 | 76 | 234 | 5.2 | 17.4 | 0.00 | 0.00 | 0.00 | 43 | 1004.6 |
| 20260505175811 | 76 | 246 | 6.1 | 17.4 | 0.00 | 0.00 | 0.00 | 43 | 1004.6 |
| 20260505175542 | 77 | 129 | 6.1 | 17.4 | 0.00 | 0.00 | 0.00 | 43 | 1004.7 |
| 20260505174800 | 78 | 207 | 5.2 | 17.4 | 0.00 | 0.00 | 0.00 | 41 | 1004.9 |
| 20260505174529 | 79 | 252 | 4.3 | 15.6 | 0.00 | 0.00 | 0.00 | 41 | 1004.8 |
| 20260505173752 | 79 | 146 | 3.5 | 11.3 | 0.00 | 0.00 | 0.00 | 42 | 1004.8 |
| 20260505173515 | 79 | 215 | 3.5 | 10.4 | 0.00 | 0.00 | 0.00 | 40 | 1004.8 |
| 20260505172740 | 80 | 213 | 2.6 | 9.6 | 0.00 | 0.00 | 0.00 | 43 | 1004.8 |
| 20260505172229 | 79 | 242 | 2.6 | 11.3 | 0.00 | 0.00 | 0.00 | 40 | 1004.9 |
| 20260505171729 | 79 | 44 | 1.7 | 11.3 | 0.00 | 0.00 | 0.00 | 41 | 1004.9 |
| 20260505171223 | 79 | 158 | 2.6 | 8.7 | 0.00 | 0.00 | 0.00 | 42 | 1004.9 |
| 20260505170713 | 79 | 192 | 1.7 | 8.7 | 0.00 | 0.00 | 0.00 | 41 | 1005.1 |
| 20260505170210 | 79 | 30 | 1.7 | 7.0 | 0.00 | 0.00 | 0.00 | 43 | 1005.0 |
| 20260505165701 | 79 | 221 | 1.7 | 7.0 | 0.00 | 0.00 | 0.00 | 41 | 1005.2 |
| 20260505165200 | 79 | 292 | 1.7 | 8.7 | 0.00 | 0.00 | 0.00 | 40 | 1005.5 |
| 20260505164653 | 78 | 284 | 3.5 | 8.7 | 0.00 | 0.00 | 0.00 | 41 | 1005.6 |
| 20260505164143 | 78 | 304 | 3.5 | 8.7 | 0.00 | 0.00 | 0.00 | 42 | 1005.7 |
| 20260505163640 | 78 | 292 | 3.5 | 9.6 | 0.00 | 0.00 | 0.00 | 41 | 1005.7 |
| 20260505163135 | 78 | 307 | 3.5 | 13.9 | 0.00 | 0.00 | 0.00 | 39 | 1005.7 |
| 20260505162901 | 78 | 207 | 3.5 | 13.9 | 0.00 | 0.00 | 0.00 | 44 | 1005.8 |
| 20260505162118 | 77 | 216 | 3.5 | 8.7 | 0.00 | 0.00 | 0.00 | 45 | 1006.0 |
| 20260505161611 | 77 | 263 | 3.5 | 12.2 | 0.00 | 0.00 | 0.00 | 41 | 1006.1 |
| 20260505161111 | 76 | 257 | 2.6 | 12.2 | 0.00 | 0.00 | 0.00 | 40 | 1006.3 |
| 20260505160605 | 76 | 84 | 2.6 | 12.2 | 0.00 | 0.00 | 0.00 | 43 | 1006.2 |
| 20260505160337 | 76 | 208 | 2.6 | 12.2 | 0.00 | 0.00 | 0.00 | 43 | 1006.4 |
| 20260505153105 | 74 | 267 | 4.3 | 14.8 | 0.00 | 0.00 | 0.00 | 44 | 1006.9 |
| 20260505152606 | 73 | 231 | 5.2 | 14.8 | 0.00 | 0.00 | 0.00 | 44 | 1006.8 |
| 20260505152106 | 74 | 266 | 4.3 | 13.9 | 0.00 | 0.00 | 0.00 | 43 | 1007.0 |
| 20260505151606 | 73 | 186 | 2.6 | 7.8 | 0.00 | 0.00 | 0.00 | 43 | 1007.1 |
| 20260505151105 | 73 | 248 | 2.6 | 7.8 | 0.00 | 0.00 | 0.00 | 47 | 1007.2 |
| 20260505150608 | 73 | 197 | 2.6 | 7.8 | 0.00 | 0.00 | 0.00 | 47 | 1007.2 |
| 20260505150105 | 72 | 31 | 3.5 | 8.7 | 0.00 | 0.00 | 0.00 | 49 | 1007.2 |
| 20260505140514 | 67 | 275 | 0.9 | 4.3 | 0.00 | 0.00 | 0.00 | 51 | 1006.6 |
| 20260505124935 | 60 | 263 | 4.3 | 13.0 | 0.00 | 0.00 | 0.00 | 59 | 1007.5 |
| 20260505124435 | 60 | 280 | 5.2 | 13.0 | 0.00 | 0.00 | 0.00 | 59 | 1007.3 |
| 20260505124206 | 59 | 232 | 4.3 | 10.4 | 0.00 | 0.00 | 0.00 | 60 | 1007.2 |
| 20260505123434 | 58 | 267 | 2.6 | 7.8 | 0.00 | 0.00 | 0.00 | 62 | 1007.2 |
| 20260505123207 | 58 | 349 | 2.6 | 7.8 | 0.00 | 0.00 | 0.00 | 62 | 1007.3 |
| 20260505122704 | 58 | 260 | 1.7 | 7.8 | 0.00 | 0.00 | 0.00 | 63 | 1007.3 |
| 20260505122159 | 57 | 296 | 2.6 | 7.8 | 0.00 | 0.00 | 0.00 | 64 | 1007.3 |
| 20260505121416 | 57 | 260 | 2.6 | 7.8 | 0.00 | 0.00 | 0.00 | 64 | 1007.3 |
| 20260505120905 | 56 | 261 | 2.6 | 7.8 | 0.00 | 0.00 | 0.00 | 64 | 1007.3 |
| 20260505120405 | 56 | 242 | 1.7 | 7.8 | 0.00 | 0.00 | 0.00 | 65 | 1007.2 |
| 20260505115905 | 55 | 269 | 2.6 | 7.8 | 0.00 | 0.00 | 0.00 | 66 | 1007.3 |
| 20260505115638 | 55 | 285 | 2.6 | 7.8 | 0.00 | 0.00 | 0.00 | 67 | 1007.5 |
| 20260505115136 | 54 | 249 | 2.6 | 8.7 | 0.00 | 0.00 | 0.00 | 69 | 1007.6 |
| 20260505114405 | 53 | 350 | 2.6 | 8.7 | 0.00 | 0.00 | 0.00 | 69 | 1007.7 |
| 20260505113905 | 53 | 213 | 1.7 | 6.1 | 0.00 | 0.00 | 0.00 | 70 | 1007.7 |
| 20260505113405 | 52 | 296 | 1.7 | 5.2 | 0.00 | 0.00 | 0.00 | 71 | 1007.7 |
| 20260505112909 | 52 | 44 | 1.7 | 4.3 | 0.00 | 0.00 | 0.00 | 72 | 1007.7 |
| 20260505112905 | 52 | 279 | 1.7 | 5.2 | 0.00 | 0.00 | 0.00 | 72 | 1007.7 |
| 20260505111848 | 51 | 266 | 1.7 | 4.3 | 0.00 | 0.00 | 0.00 | 73 | 1007.7 |
| 20260505111342 | 51 | 266 | 0.9 | 5.2 | 0.00 | 0.00 | 0.00 | 73 | 1007.7 |
| 20260505111112 | 51 | 246 | 0.9 | 5.2 | 0.00 | 0.00 | 0.00 | 73 | 1007.7 |
| 20260505110341 | 51 | 246 | 0.9 | 4.3 | 0.00 | 0.00 | 0.00 | 74 | 1007.8 |
| 20260505110114 | 50 | 279 | 0.9 | 4.3 | 0.00 | 0.00 | 0.00 | 73 | 1007.6 |
| 20260505101817 | 50 | 258 | 0.9 | 4.3 | 0.00 | 0.00 | 0.00 | 73 | 1007.7 |
| 20260505101316 | 50 | 292 | 1.7 | 5.2 | 0.00 | 0.00 | 0.00 | 73 | 1007.7 |
| 20260505100809 | 49 | 224 | 1.7 | 5.2 | 0.00 | 0.00 | 0.00 | 74 | 1007.7 |
| 20260505100532 | 49 | 279 | 0.9 | 3.5 | 0.00 | 0.00 | 0.00 | 75 | 1007.6 |
| 20260505095757 | 48 | 267 | 0.9 | 4.3 | 0.00 | 0.00 | 0.00 | 75 | 1007.6 |
| 20260505095247 | 48 | 263 | 0.9 | 4.3 | 0.00 | 0.00 | 0.00 | 76 | 1007.5 |
| 20260505094745 | 48 | 284 | 0.9 | 3.5 | 0.00 | 0.00 | 0.00 | 75 | 1007.6 |
| 20260505094239 | 48 | 273 | 0.0 | 2.6 | 0.00 | 0.00 | 0.00 | 75 | 1007.6 |
| 20260505093730 | 48 | 273 | 0.0 | 1.7 | 0.00 | 0.00 | 0.00 | 75 | 1007.6 |
| 20260505093225 | 48 | 273 | 0.0 | 0.9 | 0.00 | 0.00 | 0.00 | 75 | 1007.6 |
| 20260505092719 | 48 | 273 | 0.0 | 1.7 | 0.00 | 0.00 | 0.00 | 74 | 1007.6 |
| 20260505092213 | 48 | 273 | 0.0 | 0.9 | 0.00 | 0.00 | 0.00 | 73 | 1007.6 |
| 20260505091934 | 49 | 273 | 0.0 | 0.0 | 0.00 | 0.00 | 0.00 | 73 | 1007.6 |
| 20260505091157 | 49 | 273 | 0.0 | 0.0 | 0.00 | 0.00 | 0.00 | 72 | 1007.7 |
| 20260505090655 | 49 | 273 | 0.0 | 2.6 | 0.00 | 0.00 | 0.00 | 72 | 1007.7 |
| 20260505090417 | 49 | 273 | 0.0 | 2.6 | 0.00 | 0.00 | 0.00 | 72 | 1007.7 |
| 20260505085645 | 49 | 273 | 0.0 | 2.6 | 0.00 | 0.00 | 0.00 | 71 | 1007.7 |
| 20260505085133 | 50 | 273 | 0.0 | 2.6 | 0.00 | 0.00 | 0.00 | 70 | 1007.7 |
| 20260505084632 | 50 | 273 | 0.0 | 2.6 | 0.00 | 0.00 | 0.00 | 69 | 1007.8 |
| 20260505084126 | 50 | 273 | 0.0 | 1.7 | 0.00 | 0.00 | 0.00 | 70 | 1008.0 |
| 20260505083615 | 50 | 275 | 0.9 | 3.5 | 0.00 | 0.00 | 0.00 | 69 | 1008.0 |
| 20260505083114 | 50 | 275 | 0.9 | 3.5 | 0.00 | 0.00 | 0.00 | 69 | 1007.8 |
| 20260505082603 | 50 | 257 | 0.0 | 2.6 | 0.00 | 0.00 | 0.00 | 68 | 1008.0 |
| 20260505082102 | 50 | 257 | 0.0 | 3.5 | 0.00 | 0.00 | 0.00 | 68 | 1008.0 |
| 20260505081555 | 50 | 254 | 0.0 | 3.5 | 0.00 | 0.00 | 0.00 | 68 | 1008.0 |
| 20260505081050 | 50 | 252 | 0.0 | 3.5 | 0.00 | 0.00 | 0.00 | 68 | 1008.1 |
| 20260505080543 | 50 | 252 | 0.0 | 2.6 | 0.00 | 0.00 | 0.00 | 68 | 1008.1 |
| 20260505080038 | 50 | 252 | 0.0 | 2.6 | 0.00 | 0.00 | 0.00 | 68 | 1008.0 |
| 20260505075529 | 51 | 252 | 0.0 | 5.2 | 0.00 | 0.00 | 0.00 | 67 | 1008.1 |
| 20260505075025 | 51 | 250 | 0.0 | 5.2 | 0.00 | 0.00 | 0.00 | 67 | 1008.0 |
| 20260505074512 | 51 | 238 | 0.9 | 5.2 | 0.00 | 0.00 | 0.00 | 66 | 1008.1 |
| 20260505074011 | 51 | 267 | 0.9 | 5.2 | 0.00 | 0.00 | 0.00 | 66 | 1008.1 |
| 20260505073505 | 52 | 299 | 0.0 | 2.6 | 0.00 | 0.00 | 0.00 | 65 | 1008.2 |
| 20260505073000 | 52 | 311 | 0.0 | 0.0 | 0.00 | 0.00 | 0.00 | 64 | 1008.1 |
| 20260505072726 | 52 | 308 | 0.0 | 0.0 | 0.00 | 0.00 | 0.00 | 64 | 1008.1 |
| 20260505071942 | 53 | 308 | 0.0 | 0.0 | 0.00 | 0.00 | 0.00 | 63 | 1008.0 |
| 20260505071441 | 53 | 309 | 0.0 | 0.0 | 0.00 | 0.00 | 0.00 | 61 | 1008.0 |
| 20260505071208 | 54 | 309 | 0.0 | 0.0 | 0.00 | 0.00 | 0.00 | 60 | 1008.1 |
| 20260505070429 | 54 | 309 | 0.0 | 3.5 | 0.00 | 0.00 | 0.00 | 59 | 1008.0 |
| 20260505065923 | 55 | 309 | 0.0 | 3.5 | 0.00 | 0.00 | 0.00 | 58 | 1008.0 |
| 20260505065414 | 55 | 309 | 0.9 | 3.5 | 0.00 | 0.00 | 0.00 | 58 | 1008.1 |
| 20260505064907 | 55 | 309 | 0.9 | 3.5 | 0.00 | 0.00 | 0.00 | 57 | 1008.1 |
| 20260505064400 | 55 | 271 | 0.9 | 3.5 | 0.00 | 0.00 | 0.00 | 57 | 1008.1 |
| 20260505063858 | 55 | 268 | 0.9 | 5.2 | 0.00 | 0.00 | 0.00 | 56 | 1008.1 |
| 20260505063355 | 56 | 288 | 1.7 | 5.2 | 0.00 | 0.00 | 0.00 | 56 | 1008.0 |
| 20260505062848 | 56 | 288 | 2.6 | 5.2 | 0.00 | 0.00 | 0.00 | 56 | 1008.1 |
| 20260505062337 | 56 | 250 | 1.7 | 5.2 | 0.00 | 0.00 | 0.00 | 56 | 1007.8 |
| 20260505061831 | 56 | 259 | 1.7 | 5.2 | 0.00 | 0.00 | 0.00 | 56 | 1007.8 |
| 20260505061330 | 56 | 272 | 0.9 | 5.2 | 0.00 | 0.00 | 0.00 | 56 | 1007.8 |
| 20260505060823 | 56 | 11 | 1.7 | 5.2 | 0.00 | 0.00 | 0.00 | 55 | 1008.0 |
| 20260505060317 | 56 | 306 | 2.6 | 7.0 | 0.00 | 0.00 | 0.00 | 55 | 1008.0 |
| 20260505060309 | 57 | 271 | 1.7 | 7.0 | 0.00 | 0.00 | 0.00 | 55 | 1008.0 |
| 20260505055301 | 57 | 273 | 2.6 | 7.0 | 0.00 | 0.00 | 0.00 | 54 | 1008.0 |
| 20260505054759 | 57 | 249 | 2.6 | 6.1 | 0.00 | 0.00 | 0.00 | 54 | 1007.8 |
| 20260505054249 | 57 | 297 | 2.6 | 9.6 | 0.00 | 0.00 | 0.00 | 53 | 1007.8 |
| 20260505053747 | 57 | 257 | 2.6 | 9.6 | 0.00 | 0.00 | 0.00 | 53 | 1007.8 |
| 20260505053237 | 57 | 300 | 3.5 | 9.6 | 0.00 | 0.00 | 0.00 | 53 | 1008.0 |
| 20260505053007 | 57 | 277 | 3.5 | 9.6 | 0.00 | 0.00 | 0.00 | 53 | 1007.8 |
| 20260505052229 | 58 | 257 | 2.6 | 7.8 | 0.00 | 0.00 | 0.00 | 53 | 1007.8 |
| 20260505051952 | 58 | 216 | 2.6 | 7.8 | 0.00 | 0.00 | 0.00 | 53 | 1007.7 |
| 20260505051221 | 58 | 322 | 2.6 | 7.8 | 0.00 | 0.00 | 0.00 | 52 | 1007.8 |
| 20260505050719 | 58 | 275 | 2.6 | 7.8 | 0.00 | 0.00 | 0.00 | 52 | 1008.0 |
| 20260505050218 | 58 | 252 | 2.6 | 7.8 | 0.00 | 0.00 | 0.00 | 52 | 1007.8 |
| 20260505041218 | 59 | 224 | 3.5 | 11.3 | 0.00 | 0.00 | 0.00 | 51 | 1007.4 |
| 20260505040950 | 58 | 267 | 2.6 | 8.7 | 0.00 | 0.00 | 0.00 | 52 | 1007.4 |
| 20260505040223 | 58 | 304 | 2.6 | 12.2 | 0.00 | 0.00 | 0.00 | 52 | 1007.2 |
| 20260505040219 | 58 | 267 | 2.6 | 12.2 | 0.00 | 0.00 | 0.00 | 52 | 1007.4 |
| 20260505035448 | 58 | 265 | 2.6 | 7.8 | 0.00 | 0.00 | 0.00 | 53 | 1007.2 |
| 20260505034708 | 57 | 179 | 2.6 | 7.8 | 0.00 | 0.00 | 0.00 | 54 | 1007.3 |
| 20260505034206 | 57 | 265 | 3.5 | 11.3 | 0.00 | 0.00 | 0.00 | 54 | 1007.2 |